FW7862 Weather Reports


Display with metric or nautical units.
time (UTC)temp
F
wind
direction
speed
MPH
gust
MPH
rain 1hr
in
rain 24hr
in
rain mn
in
humidity
%
barometer
mb
20260507202436 78 24 0.0 1.0 0.00 0.03 0.03 89 1013.1
20260507201932 79 347 0.0 0.0 0.00 0.03 0.03 89 1013.1
20260507201433 78 36 0.0 0.0 0.00 0.03 0.03 88 1013.0
20260507200930 78 29 0.0 0.0 0.00 0.03 0.03 88 1013.1
20260507200425 79 24 0.0 0.0 0.00 0.03 0.03 88 1013.4
20260507195921 79 353 0.0 0.0 0.00 0.03 0.03 88 1013.2
20260507195419 80 35 0.0 1.0 0.00 0.03 0.03 87 1013.3
20260507194916 80 20 0.0 0.0 0.00 0.03 0.03 86 1013.4
20260507194413 80 358 0.0 0.0 0.00 0.03 0.03 86 1013.5
20260507193909 80 35 0.0 0.0 0.00 0.03 0.03 86 1013.6
20260507193406 81 9 0.0 0.0 0.00 0.03 0.03 85 1013.5
20260507192902 81 60 0.0 1.0 0.00 0.03 0.03 84 1013.5
20260507192358 81 346 0.0 0.0 0.00 0.03 0.03 84 1013.4
20260507191855 80 9 0.0 1.0 0.00 0.03 0.03 84 1013.6
20260507191351 80 32 0.0 0.0 0.00 0.03 0.03 85 1013.5
20260507190848 80 34 0.0 0.0 0.00 0.03 0.03 85 1013.4
20260507190347 79 37 1.0 1.0 0.00 0.03 0.03 85 1013.7
20260507185845 79 24 0.0 0.0 0.00 0.03 0.03 86 1013.7
20260507185342 79 57 0.0 1.0 0.00 0.03 0.03 86 1013.8
20260507184839 80 74 1.0 1.0 0.00 0.03 0.03 84 1013.5
20260507184337 79 46 0.0 0.0 0.00 0.03 0.03 86 1013.6
20260507183833 80 40 0.0 0.0 0.00 0.03 0.03 86 1013.4
20260507183331 80 303 2.0 2.0 0.00 0.03 0.03 85 1013.6
20260507182828 79 341 1.0 2.0 0.00 0.03 0.03 86 1013.6
20260507182324 78 38 1.0 1.0 0.00 0.03 0.03 86 1014.0
20260507181820 78 72 1.0 1.0 0.00 0.03 0.03 88 1014.0
20260507181316 78 76 1.0 2.0 0.00 0.03 0.03 87 1014.0
20260507180813 78 42 1.0 1.0 0.00 0.03 0.03 87 1014.0
20260507180310 77 38 0.0 0.0 0.00 0.03 0.03 89 1014.1
20260507175805 78 30 0.0 0.0 0.00 0.03 0.03 88 1014.3
20260507175306 78 9 0.0 1.0 0.00 0.03 0.03 88 1014.1
20260507174800 76 353 0.0 0.0 0.00 0.03 0.03 91 1014.3
20260507174258 75 333 1.0 1.0 0.00 0.03 0.03 91 1014.4
20260507173755 73 15 0.0 1.0 0.00 0.03 0.03 93 1014.4
20260507173252 74 43 1.0 2.0 0.00 0.03 0.03 93 1014.2
20260507172748 75 38 1.0 1.0 0.00 0.03 0.03 92 1014.3
20260507172245 75 23 0.0 1.0 0.00 0.03 0.03 92 1014.4
20260507171741 73 29 1.0 1.0 0.00 0.03 0.03 92 1014.4
20260507171238 74 43 1.0 2.0 0.00 0.03 0.03 92 1014.5
20260507170735 73 21 1.0 2.0 0.00 0.03 0.03 94 1014.5
20260507170231 72 34 0.0 1.0 0.00 0.03 0.03 95 1014.5
20260507165727 72 38 1.0 2.0 0.00 0.03 0.03 96 1014.6
20260507165223 71 41 2.0 2.0 0.00 0.03 0.03 98 1014.6
20260507164719 71 22 2.0 2.0 0.00 0.03 0.03 98 1014.8
20260507164217 70 21 0.0 0.0 0.00 0.03 0.03 99 1014.8
20260507163714 70 30 1.0 1.0 0.00 0.03 0.03 99 1014.9
20260507163212 70 26 0.0 0.0 0.00 0.03 0.03 99 1014.7
20260507162708 69 31 1.0 1.0 0.00 0.03 0.03 99 1015.0
20260507162204 69 32 0.0 1.0 0.00 0.03 0.03 99 1014.9
20260507161700 69 30 0.0 0.0 0.00 0.03 0.03 99 1014.8
20260507161156 69 32 0.0 0.0 0.00 0.03 0.03 99 1014.7
20260507160653 69 4 1.0 1.0 0.00 0.03 0.03 99 1014.8
20260507160150 69 13 1.0 1.0 0.00 0.03 0.03 99 1014.7
20260507155645 68 26 0.0 1.0 0.00 0.03 0.03 99 1014.6
20260507155142 68 24 0.0 0.0 0.00 0.03 0.03 99 1014.4
20260507154639 68 39 0.0 0.0 0.00 0.03 0.03 99 1014.8
20260507154137 67 27 0.0 0.0 0.00 0.03 0.03 99 1014.4
20260507153633 67 32 0.0 0.0 0.00 0.03 0.03 99 1014.6
20260507153129 67 35 1.0 1.0 0.00 0.03 0.03 99 1014.5
20260507152626 67 25 1.0 1.0 0.00 0.03 0.03 99 1014.5
20260507152121 67 28 0.0 1.0 0.00 0.03 0.03 99 1014.6
20260507151618 67 69 1.0 1.0 0.00 0.03 0.03 99 1014.7
20260507151115 68 21 0.0 0.0 0.00 0.03 0.03 99 1014.5
20260507150612 68 24 1.0 2.0 0.00 0.03 0.03 99 1014.9
20260507150109 68 32 0.0 0.0 0.00 0.03 0.03 99 1014.6
20260507145603 68 21 0.0 0.0 0.00 0.03 0.03 99 1014.6
20260507145056 68 9 0.0 1.0 0.05 0.03 0.03 99 1014.6
20260507144552 69 23 0.0 0.0 0.12 0.03 0.03 99 1014.7
20260507144050 69 26 0.0 0.0 0.07 0.02 0.02 99 1014.6
20260507143546 69 23 0.0 0.0 0.00 0.01 0.01 99 1014.5
20260507143044 69 295 0.0 1.0 0.00 0.01 0.01 99 1014.7
20260507142539 69 22 0.0 0.0 0.00 0.01 0.01 99 1014.4
20260507142036 69 23 0.0 0.0 0.00 0.01 0.01 99 1014.3
20260507141532 69 31 0.0 0.0 0.00 0.01 0.01 99 1014.1
20260507141029 69 43 0.0 0.0 0.00 0.01 0.01 99 1014.2
20260507140526 70 70 0.0 1.0 0.00 0.01 0.01 99 1014.4
20260507140024 70 30 0.0 0.0 0.00 0.01 0.01 99 1014.3
20260507135520 70 17 0.0 0.0 0.00 0.01 0.01 99 1014.3
20260507135018 70 26 0.0 0.0 0.00 0.01 0.01 99 1014.1
20260507134514 69 26 0.0 0.0 0.00 0.01 0.01 99 1014.0
20260507134009 69 29 0.0 0.0 0.00 0.01 0.01 99 1014.0
20260507133506 69 30 0.0 0.0 0.00 0.01 0.01 99 1014.2
20260507133005 70 25 0.0 0.0 0.00 0.01 0.01 99 1014.0
20260507132500 70 13 1.0 1.0 0.00 0.01 0.01 99 1014.1
20260507131956 70 28 0.0 0.0 0.00 0.01 0.01 99 1014.2
20260507131454 70 34 0.0 0.0 0.00 0.01 0.01 99 1014.0
20260507130951 71 32 0.0 0.0 0.00 0.01 0.01 99 1013.8
20260507130448 71 29 0.0 0.0 0.00 0.01 0.01 99 1013.9
20260507125946 71 31 0.0 0.0 0.00 0.01 0.01 99 1013.9
20260507125444 72 24 0.0 0.0 0.00 0.01 0.01 99 1013.8
20260507124941 72 26 0.0 0.0 0.00 0.01 0.01 99 1013.7
20260507124437 72 31 0.0 0.0 0.00 0.01 0.01 99 1013.6
20260507123936 73 24 0.0 0.0 0.00 0.01 0.01 99 1013.5
20260507123433 73 28 0.0 0.0 0.00 0.01 0.01 99 1013.4
20260507122929 73 28 0.0 0.0 0.00 0.01 0.01 99 1013.2
20260507122424 73 26 0.0 0.0 0.00 0.01 0.01 99 1013.2
20260507121921 74 32 0.0 0.0 0.00 0.01 0.01 99 1012.9
20260507121416 75 27 0.0 0.0 0.00 0.01 0.01 99 1012.9
20260507120913 76 343 0.0 0.0 0.05 0.01 0.01 99 1012.6
20260507120410 76 283 1.0 1.0 0.05 0.01 0.01 99 1012.6
20260507115906 76 358 0.0 0.0 0.00 0.00 0.00 99 1012.4
20260507115402 77 345 0.0 0.0 0.00 0.00 0.00 99 1012.6
20260507114857 77 260 3.0 3.0 0.00 0.00 0.00 99 1012.0
20260507114355 77 316 1.0 1.0 0.00 0.00 0.00 99 1012.1
20260507113852 77 319 4.0 5.0 0.00 0.00 0.00 99 1012.0
20260507113349 77 299 1.0 2.0 0.00 0.00 0.00 99 1012.1
20260507112846 77 280 2.0 5.0 0.00 0.00 0.00 99 1012.1
20260507112343 77 279 2.0 2.0 0.00 0.00 0.00 99 1011.8
20260507111841 77 290 1.0 2.0 0.00 0.00 0.00 99 1011.8
20260507111338 77 9 1.0 2.0 0.00 0.00 0.00 99 1011.9
20260507110834 77 284 3.0 3.0 0.00 0.00 0.00 99 1011.7
20260507110330 77 300 1.0 2.0 0.00 0.00 0.00 99 1011.7
20260507105827 77 264 3.0 3.0 0.00 0.00 0.00 99 1011.6
20260507105324 77 307 1.0 2.0 0.00 0.00 0.00 99 1011.5
20260507104821 77 285 3.0 3.0 0.00 0.00 0.00 99 1011.6
20260507104317 77 289 3.0 3.0 0.00 0.00 0.00 99 1011.7
20260507103813 77 288 3.0 3.0 0.00 0.00 0.00 99 1011.4
20260507103310 77 273 2.0 3.0 0.00 0.00 0.00 99 1011.3
20260507102806 77 327 0.0 1.0 0.00 0.00 0.00 99 1011.4
20260507102306 77 286 3.0 5.0 0.00 0.00 0.00 99 1011.2
20260507101759 77 307 4.0 5.0 0.00 0.00 0.00 99 1011.3
20260507101254 77 290 2.0 3.0 0.00 0.00 0.00 99 1011.2
20260507100751 77 287 3.0 3.0 0.00 0.00 0.00 99 1011.4
20260507100250 77 269 2.0 2.0 0.00 0.00 0.00 99 1011.5
20260507095747 77 280 3.0 3.0 0.00 0.00 0.00 99 1011.3
20260507095243 77 284 3.0 3.0 0.00 0.00 0.00 99 1011.1
20260507094740 77 295 2.0 3.0 0.00 0.00 0.00 99 1011.1
20260507094237 77 277 3.0 3.0 0.00 0.00 0.00 99 1011.1
20260507093734 77 324 1.0 2.0 0.00 0.00 0.00 99 1011.1
20260507093233 77 282 3.0 3.0 0.00 0.00 0.00 99 1011.2
20260507092730 77 301 2.0 2.0 0.00 0.00 0.00 99 1010.9
20260507092226 77 298 2.0 2.0 0.00 0.00 0.00 99 1011.2
20260507091723 77 9 1.0 1.0 0.00 0.00 0.00 99 1010.9
20260507091219 77 283 3.0 3.0 0.00 0.00 0.00 99 1010.8
20260507090719 77 260 3.0 3.0 0.00 0.00 0.00 99 1011.1
20260507090216 77 286 3.0 3.0 0.00 0.00 0.00 99 1011.0
20260507085714 77 235 2.0 3.0 0.00 0.00 0.00 99 1011.2
20260507085211 77 233 3.0 3.0 0.00 0.00 0.00 99 1011.0
20260507084707 77 304 5.0 8.0 0.00 0.00 0.00 99 1011.3
20260507084203 77 291 3.0 3.0 0.00 0.00 0.00 99 1011.0
20260507083700 77 269 3.0 3.0 0.00 0.00 0.00 99 1011.0
20260507083157 77 288 2.0 2.0 0.00 0.00 0.00 99 1011.1
20260507082653 77 281 3.0 5.0 0.00 0.00 0.00 99 1011.0
20260507082150 77 281 3.0 3.0 0.00 0.00 0.00 99 1011.0
20260507081646 77 277 3.0 3.0 0.00 0.00 0.00 99 1010.9
20260507081143 77 296 2.0 2.0 0.00 0.00 0.00 99 1011.0
20260507080639 77 297 2.0 2.0 0.00 0.00 0.00 99 1011.1
20260507080136 77 247 1.0 1.0 0.00 0.00 0.00 99 1011.2
20260507075631 77 317 2.0 3.0 0.00 0.00 0.00 99 1011.1
20260507075128 77 276 2.0 2.0 0.00 0.00 0.00 99 1011.1
20260507074624 77 239 1.0 1.0 0.00 0.00 0.00 99 1011.2
20260507074123 77 186 1.0 2.0 0.00 0.00 0.00 99 1011.2
20260507073619 77 274 2.0 2.0 0.00 0.00 0.00 99 1011.6
20260507073115 77 263 1.0 2.0 0.00 0.00 0.00 99 1011.6
20260507072613 77 289 3.0 3.0 0.00 0.00 0.00 99 1011.6
20260507072110 77 260 3.0 3.0 0.00 0.00 0.00 99 1011.6
20260507071607 77 259 3.0 3.0 0.00 0.00 0.00 99 1011.9
20260507071103 77 286 2.0 2.0 0.00 0.00 0.00 99 1011.4
20260507070601 77 323 0.0 1.0 0.00 0.00 0.00 99 1011.6
20260507070058 77 261 2.0 3.0 0.00 0.00 0.00 99 1011.5
20260507065554 77 280 3.0 5.0 0.00 0.00 0.00 99 1011.5
20260507065051 77 320 1.0 2.0 0.00 0.00 0.00 99 1011.8
20260507064549 77 316 1.0 2.0 0.00 0.00 0.00 99 1011.8
20260507064047 77 312 1.0 1.0 0.00 0.00 0.00 99 1011.8
20260507063544 77 290 4.0 5.0 0.00 0.00 0.00 99 1011.9
20260507063041 77 313 3.0 5.0 0.00 0.00 0.00 99 1011.7
20260507062538 77 209 2.0 2.0 0.00 0.00 0.00 99 1011.7
20260507062036 77 267 3.0 3.0 0.00 0.00 0.00 99 1011.8
20260507061533 77 268 3.0 7.0 0.00 0.00 0.00 99 1011.8
20260507061031 77 283 3.0 3.0 0.00 0.00 0.00 99 1011.8
20260507060529 77 239 6.0 8.0 0.00 0.00 0.00 99 1011.8
20260507060025 77 259 2.0 3.0 0.00 0.00 0.00 99 1011.8
20260507055525 77 296 2.0 2.0 0.00 0.00 0.00 99 1011.6
20260507055022 77 275 1.0 2.0 0.00 0.00 0.00 99 1011.8
20260507054518 77 282 6.0 9.0 0.00 0.00 0.00 99 1011.7
20260507054015 77 280 1.0 1.0 0.00 0.00 0.00 99 1011.9
20260507053513 77 239 2.0 3.0 0.00 0.00 0.00 99 1011.6
20260507053012 77 311 1.0 2.0 0.00 0.00 0.00 99 1011.8
20260507052509 77 270 2.0 3.0 0.00 0.00 0.00 99 1011.9
20260507052005 77 260 3.0 3.0 0.00 0.00 0.00 99 1011.7
20260507051503 77 290 5.0 7.0 0.00 0.00 0.00 99 1011.6
20260507051000 77 283 1.0 2.0 0.00 0.00 0.00 99 1011.7
20260507050456 77 279 5.0 6.0 0.00 0.00 0.00 99 1011.9
20260507045953 77 262 4.0 5.0 0.00 0.00 0.00 99 1011.7
20260507045449 77 212 2.0 2.0 0.00 0.00 0.00 99 1011.6
20260507044947 77 265 3.0 5.0 0.00 0.00 0.00 99 1011.5
20260507044444 77 276 3.0 5.0 0.00 0.00 0.00 99 1011.7
20260507043940 77 298 1.0 1.0 0.00 0.00 0.00 99 1011.5
20260507043436 77 314 0.0 1.0 0.00 0.00 0.00 99 1011.1
20260507042932 78 290 3.0 5.0 0.00 0.00 0.00 99 1011.0
20260507042429 77 335 2.0 5.0 0.00 0.00 0.00 99 1011.0
20260507041925 78 284 2.0 3.0 0.00 0.00 0.00 99 1011.2
20260507041422 78 31 2.0 3.0 0.00 0.00 0.00 99 1011.1
20260507040920 78 268 1.0 1.0 0.00 0.00 0.00 99 1011.3
20260507040415 78 356 3.0 5.0 0.00 0.00 0.00 99 1011.3
20260507035911 78 346 0.0 1.0 0.00 0.00 0.00 99 1011.4
20260507035408 78 296 1.0 1.0 0.00 0.00 0.00 99 1011.5
20260507034904 78 323 2.0 3.0 0.00 0.00 0.00 99 1011.2
20260507034401 78 48 3.0 3.0 0.00 0.00 0.00 99 1011.6
20260507033859 78 306 2.0 2.0 0.00 0.00 0.00 99 1011.4
20260507033357 78 294 2.0 2.0 0.00 0.00 0.00 99 1011.3
20260507032854 78 269 4.0 5.0 0.00 0.00 0.00 99 1011.3
20260507032350 77 266 3.0 3.0 0.00 0.00 0.00 99 1011.5
20260507031847 77 312 1.0 2.0 0.00 0.00 0.00 99 1011.4
20260507031344 77 18 1.0 1.0 0.00 0.00 0.00 99 1011.3
20260507030840 78 348 0.0 1.0 0.00 0.00 0.00 99 1011.4
20260507030338 78 110 1.0 2.0 0.00 0.00 0.00 99 1011.5
20260507025834 78 333 2.0 2.0 0.00 0.00 0.00 99 1011.4
20260507025332 78 265 1.0 2.0 0.00 0.00 0.00 99 1011.6
20260507024830 78 59 1.0 2.0 0.00 0.00 0.00 99 1011.6
20260507024327 78 51 1.0 2.0 0.00 0.00 0.00 99 1011.8
20260507023822 78 237 1.0 2.0 0.00 0.00 0.00 99 1012.0
20260507023319 78 37 0.0 0.0 0.00 0.00 0.00 99 1012.0
20260507022816 78 22 0.0 0.0 0.00 0.00 0.00 99 1011.9
20260507022312 78 56 0.0 1.0 0.00 0.00 0.00 99 1011.7
20260507021809 78 357 0.0 0.0 0.00 0.00 0.00 99 1011.9
20260507021305 78 40 0.0 0.0 0.00 0.00 0.00 99 1011.9
20260507020803 78 38 0.0 1.0 0.00 0.00 0.00 99 1011.9
20260507020259 78 350 0.0 0.0 0.00 0.00 0.00 99 1011.9
20260507015757 78 336 1.0 1.0 0.00 0.00 0.00 98 1011.8
20260507015254 78 334 1.0 1.0 0.00 0.00 0.00 98 1011.5
20260507014751 78 191 1.0 2.0 0.00 0.00 0.00 98 1011.5
20260507014247 79 316 2.0 2.0 0.00 0.00 0.00 98 1011.5
20260507013743 79 338 0.0 1.0 0.00 0.00 0.00 97 1011.5
20260507013241 79 316 1.0 1.0 0.00 0.00 0.00 97 1011.2
20260507012738 79 18 0.0 1.0 0.00 0.00 0.00 97 1011.2
20260507012233 79 277 1.0 2.0 0.00 0.00 0.00 97 1011.2
20260507011732 79 255 1.0 1.0 0.00 0.00 0.00 97 1011.0
20260507011228 79 59 1.0 1.0 0.00 0.00 0.00 97 1010.9
20260507010727 79 344 1.0 1.0 0.00 0.00 0.00 97 1010.7
20260507010224 79 70 1.0 1.0 0.00 0.00 0.00 97 1010.8
20260507005721 79 74 1.0 2.0 0.00 0.00 0.00 97 1010.8
20260507005217 79 334 1.0 2.0 0.00 0.00 0.00 97 1010.6
20260507004714 79 343 1.0 1.0 0.00 0.00 0.00 96 1011.0
20260507004212 79 39 0.0 1.0 0.00 0.00 0.00 96 1010.7
20260507003708 79 312 2.0 2.0 0.00 0.00 0.00 96 1010.5
20260507003203 79 266 1.0 2.0 0.00 0.00 0.00 96 1010.6
20260507002659 79 125 1.0 2.0 0.00 0.00 0.00 96 1010.4
20260507002156 80 8 1.0 1.0 0.00 0.00 0.00 95 1010.5
20260507001652 80 345 1.0 2.0 0.00 0.00 0.00 95 1010.6
20260507001150 80 46 1.0 1.0 0.00 0.00 0.00 94 1010.5
20260507000646 80 60 1.0 2.0 0.00 0.00 0.00 94 1010.7
20260507000142 80 45 0.0 1.0 0.00 0.00 0.00 94 1010.7
20260506235639 80 272 2.0 2.0 0.00 0.00 0.00 93 1010.7
20260506235133 80 262 2.0 3.0 0.00 0.00 0.00 93 1010.7
20260506234631 80 16 0.0 0.0 0.00 0.00 0.00 92 1010.7
20260506234128 80 241 1.0 2.0 0.00 0.00 0.00 92 1010.6
20260506233625 80 64 1.0 1.0 0.00 0.00 0.00 92 1010.6
20260506233122 81 60 1.0 1.0 0.00 0.00 0.00 91 1010.5
20260506232618 81 21 0.0 0.0 0.00 0.00 0.00 91 1010.6
20260506232114 81 75 2.0 2.0 0.00 0.00 0.00 91 1010.3
20260506231611 81 132 1.0 1.0 0.00 0.00 0.00 91 1010.6
20260506231109 81 327 1.0 2.0 0.00 0.00 0.00 91 1010.5
20260506230605 81 85 1.0 2.0 0.00 0.00 0.00 91 1010.4
20260506230103 81 69 1.0 2.0 0.00 0.00 0.00 91 1010.2
20260506225559 82 112 1.0 1.0 0.00 0.00 0.00 90 1010.5
20260506225055 82 315 2.0 2.0 0.00 0.00 0.00 90 1010.5
20260506224553 82 185 1.0 2.0 0.00 0.00 0.00 90 1010.3
20260506224049 82 348 2.0 3.0 0.00 0.00 0.00 89 1010.5
20260506223545 83 184 2.0 3.0 0.00 0.00 0.00 88 1010.4
20260506223042 83 31 0.0 1.0 0.00 0.00 0.00 89 1010.4
20260506222539 84 248 2.0 2.0 0.00 0.00 0.00 88 1010.5
20260506222035 83 76 1.0 1.0 0.00 0.00 0.00 89 1010.6
20260506221533 83 313 1.0 2.0 0.00 0.00 0.00 90 1010.7
20260506221030 83 148 1.0 2.0 0.00 0.00 0.00 89 1010.8
20260506220526 83 265 1.0 3.0 0.00 0.00 0.00 89 1010.8
20260506220022 83 56 1.0 1.0 0.00 0.00 0.00 88 1011.0
20260506215519 84 42 1.0 2.0 0.00 0.00 0.00 88 1011.2
20260506215015 84 70 0.0 1.0 0.00 0.00 0.00 87 1011.0
20260506214512 84 28 1.0 1.0 0.00 0.00 0.00 86 1010.9
20260506214009 83 97 1.0 2.0 0.00 0.00 0.00 88 1011.0
20260506213507 83 6 0.0 0.0 0.00 0.00 0.00 88 1011.3
20260506213004 83 38 0.0 1.0 0.00 0.00 0.00 88 1011.4
20260506212500 84 100 1.0 2.0 0.00 0.00 0.00 86 1011.2
20260506211955 84 348 0.0 0.0 0.00 0.00 0.00 86 1011.2
20260506211451 83 44 1.0 1.0 0.00 0.00 0.00 86 1011.4
20260506210948 83 297 2.0 3.0 0.00 0.00 0.00 86 1011.2
20260506210444 84 243 2.0 2.0 0.00 0.00 0.00 86 1011.3
20260506205942 84 107 1.0 1.0 0.00 0.00 0.00 86 1011.2
20260506205438 84 291 2.0 2.0 0.00 0.00 0.00 85 1011.4
20260506204934 85 89 1.0 1.0 0.00 0.00 0.00 83 1011.2
20260506204432 86 19 3.0 3.0 0.00 0.00 0.00 82 1011.5
20260506203929 84 201 2.0 5.0 0.00 0.00 0.00 84 1011.4
20260506203426 84 124 2.0 2.0 0.00 0.00 0.00 85 1011.6
20260506202923 84 281 3.0 3.0 0.00 0.00 0.00 86 1011.5